| time (UTC) | temp F | wind direction | speed MPH | gust MPH | rain 1hr in | rain 24hr in | rain mn in | humidity % | barometer mb |
| 20260831134602 | 85 | 311 | 0.0 | 4.0 | 0.00 | 0.81 | 0.00 | 100 | 1018.7 |
| 20260831134054 | 84 | 338 | 0.0 | 4.0 | 0.00 | 0.81 | 0.00 | 100 | 1018.7 |
| 20260831133551 | 84 | 17 | 1.0 | 4.0 | 0.00 | 0.81 | 0.00 | 100 | 1018.7 |
| 20260831133049 | 84 | 360 | 0.0 | 3.0 | 0.00 | 0.81 | 0.00 | 100 | 1018.6 |
| 20260831132549 | 83 | 5 | 0.0 | 4.0 | 0.00 | 0.81 | 0.00 | 100 | 1018.5 |
| 20260831132048 | 83 | 329 | 1.0 | 4.0 | 0.00 | 0.81 | 0.00 | 100 | 1018.5 |
| 20260831131547 | 83 | 350 | 0.0 | 0.0 | 0.00 | 0.81 | 0.00 | 100 | 1018.5 |
| 20260831131047 | 83 | 10 | 0.0 | 0.0 | 0.00 | 0.81 | 0.00 | 100 | 1018.6 |
| 20260831130545 | 83 | 355 | 0.0 | 0.0 | 0.00 | 0.81 | 0.00 | 100 | 1018.5 |
| 20260831130053 | 82 | 346 | 0.0 | 0.0 | 0.00 | 0.81 | 0.00 | 100 | 1018.6 |
| 20260831125544 | 82 | 346 | 0.0 | 0.0 | 0.00 | 0.81 | 0.00 | 100 | 1018.6 |
| 20260831125044 | 82 | 346 | 0.0 | 0.0 | 0.00 | 0.81 | 0.00 | 100 | 1018.6 |
| 20260831124543 | 81 | 346 | 0.0 | 0.0 | 0.00 | 0.81 | 0.00 | 100 | 1018.6 |
| 20260831124041 | 81 | 344 | 0.0 | 0.0 | 0.00 | 0.81 | 0.00 | 100 | 1018.6 |
| 20260831123540 | 80 | 350 | 0.0 | 0.0 | 0.00 | 0.81 | 0.00 | 100 | 1018.6 |
| 20260831123041 | 80 | 344 | 0.0 | 0.0 | 0.00 | 0.81 | 0.00 | 100 | 1018.5 |
| 20260831122541 | 80 | 330 | 0.0 | 3.0 | 0.00 | 0.81 | 0.00 | 100 | 1018.4 |
| 20260831122039 | 80 | 332 | 1.0 | 3.0 | 0.00 | 0.81 | 0.00 | 100 | 1018.4 |
| 20260831121536 | 79 | 65 | 0.0 | 0.0 | 0.00 | 0.81 | 0.00 | 100 | 1018.3 |
| 20260831121036 | 79 | 65 | 0.0 | 0.0 | 0.00 | 0.81 | 0.00 | 100 | 1018.2 |
| 20260831120536 | 79 | 65 | 0.0 | 0.0 | 0.00 | 0.81 | 0.00 | 100 | 1018.2 |
| 20260831120036 | 79 | 65 | 0.0 | 0.0 | 0.00 | 0.81 | 0.00 | 100 | 1018.0 |
| 20260831115535 | 79 | 65 | 0.0 | 0.0 | 0.00 | 0.81 | 0.00 | 100 | 1017.9 |
| 20260831115035 | 78 | 65 | 0.0 | 0.0 | 0.00 | 0.81 | 0.00 | 100 | 1017.8 |
| 20260831114539 | 78 | 65 | 0.0 | 0.0 | 0.00 | 0.81 | 0.00 | 100 | 1017.8 |
| 20260831114038 | 78 | 65 | 0.0 | 0.0 | 0.00 | 0.81 | 0.00 | 100 | 1017.7 |
| 20260831113537 | 78 | 65 | 0.0 | 0.0 | 0.00 | 0.81 | 0.00 | 100 | 1017.7 |
| 20260831113038 | 78 | 65 | 0.0 | 0.0 | 0.00 | 0.81 | 0.00 | 100 | 1017.6 |
| 20260831112538 | 78 | 65 | 0.0 | 0.0 | 0.00 | 0.81 | 0.00 | 100 | 1017.6 |
| 20260831112034 | 77 | 65 | 0.0 | 0.0 | 0.00 | 0.81 | 0.00 | 100 | 1017.6 |
| 20260831111533 | 77 | 65 | 0.0 | 0.0 | 0.00 | 0.81 | 0.00 | 100 | 1017.5 |
| 20260831111032 | 77 | 65 | 0.0 | 0.0 | 0.00 | 0.81 | 0.00 | 100 | 1017.5 |
| 20260831110534 | 77 | 65 | 0.0 | 0.0 | 0.00 | 0.81 | 0.00 | 100 | 1017.4 |
| 20260831110034 | 77 | 65 | 0.0 | 0.0 | 0.00 | 0.81 | 0.00 | 100 | 1017.5 |
| 20260831105533 | 77 | 65 | 0.0 | 0.0 | 0.00 | 0.81 | 0.00 | 100 | 1017.3 |
| 20260831105034 | 77 | 65 | 0.0 | 0.0 | 0.00 | 0.81 | 0.00 | 100 | 1017.4 |
| 20260831104533 | 77 | 65 | 0.0 | 0.0 | 0.00 | 0.81 | 0.00 | 100 | 1017.4 |
| 20260831104032 | 77 | 65 | 0.0 | 0.0 | 0.00 | 0.81 | 0.00 | 100 | 1017.2 |
| 20260831103531 | 77 | 65 | 0.0 | 0.0 | 0.00 | 0.81 | 0.00 | 100 | 1017.3 |
| 20260831103031 | 77 | 65 | 0.0 | 0.0 | 0.00 | 0.81 | 0.00 | 100 | 1017.2 |
| 20260831102531 | 77 | 65 | 0.0 | 1.0 | 0.00 | 0.81 | 0.00 | 100 | 1017.2 |
| 20260831102033 | 77 | 65 | 0.0 | 1.0 | 0.00 | 0.81 | 0.00 | 100 | 1017.3 |
| 20260831101531 | 77 | 65 | 0.0 | 0.0 | 0.00 | 0.81 | 0.00 | 100 | 1017.2 |
| 20260831101034 | 77 | 65 | 0.0 | 0.0 | 0.00 | 0.81 | 0.00 | 100 | 1017.1 |
| 20260831100530 | 77 | 65 | 0.0 | 3.0 | 0.00 | 0.81 | 0.00 | 100 | 1017.1 |
| 20260831100030 | 77 | 65 | 0.0 | 3.0 | 0.00 | 0.81 | 0.00 | 100 | 1017.0 |
| 20260831095532 | 77 | 155 | 0.0 | 0.0 | 0.00 | 0.81 | 0.00 | 100 | 1017.0 |
| 20260831095031 | 77 | 155 | 0.0 | 0.0 | 0.00 | 0.81 | 0.00 | 100 | 1017.0 |
| 20260831094530 | 77 | 155 | 0.0 | 0.0 | 0.00 | 0.81 | 0.00 | 100 | 1017.0 |
| 20260831094030 | 77 | 155 | 0.0 | 0.0 | 0.00 | 0.81 | 0.00 | 100 | 1017.1 |
| 20260831093533 | 77 | 155 | 0.0 | 0.0 | 0.00 | 0.81 | 0.00 | 100 | 1017.0 |
| 20260831093030 | 77 | 155 | 0.0 | 0.0 | 0.00 | 0.81 | 0.00 | 100 | 1016.9 |
| 20260831092529 | 77 | 155 | 0.0 | 0.0 | 0.00 | 0.81 | 0.00 | 100 | 1017.0 |
| 20260831092031 | 78 | 155 | 0.0 | 0.0 | 0.00 | 0.81 | 0.00 | 100 | 1016.9 |
| 20260831091528 | 78 | 155 | 0.0 | 0.0 | 0.00 | 0.81 | 0.00 | 100 | 1017.0 |
| 20260831091031 | 78 | 155 | 0.0 | 0.0 | 0.00 | 0.81 | 0.00 | 100 | 1017.0 |
| 20260831090528 | 78 | 155 | 0.0 | 0.0 | 0.00 | 0.81 | 0.00 | 100 | 1017.1 |
| 20260831090028 | 78 | 155 | 0.0 | 0.0 | 0.00 | 0.81 | 0.00 | 100 | 1017.2 |
| 20260831085526 | 78 | 155 | 0.0 | 0.0 | 0.00 | 0.81 | 0.00 | 100 | 1017.2 |
| 20260831085030 | 78 | 155 | 0.0 | 0.0 | 0.00 | 0.81 | 0.00 | 100 | 1017.3 |
| 20260831084527 | 78 | 155 | 0.0 | 0.0 | 0.00 | 0.81 | 0.00 | 100 | 1017.3 |
| 20260831084026 | 78 | 155 | 0.0 | 0.0 | 0.00 | 0.81 | 0.00 | 100 | 1017.4 |
| 20260831083526 | 77 | 155 | 0.0 | 0.0 | 0.00 | 0.81 | 0.00 | 100 | 1017.4 |
| 20260831083026 | 77 | 155 | 0.0 | 0.0 | 0.00 | 0.81 | 0.00 | 100 | 1017.4 |
| 20260831082526 | 77 | 155 | 0.0 | 0.0 | 0.00 | 0.81 | 0.00 | 100 | 1017.3 |
| 20260831082026 | 77 | 155 | 0.0 | 0.0 | 0.00 | 0.81 | 0.00 | 100 | 1017.4 |
| 20260831081525 | 77 | 155 | 0.0 | 0.0 | 0.00 | 0.81 | 0.00 | 100 | 1017.3 |
| 20260831081025 | 77 | 155 | 0.0 | 0.0 | 0.00 | 0.81 | 0.00 | 100 | 1017.3 |
| 20260831080524 | 78 | 155 | 0.0 | 0.0 | 0.00 | 0.81 | 0.00 | 100 | 1017.3 |
| 20260831080124 | 78 | 155 | 0.0 | 0.0 | 0.00 | 0.81 | 0.00 | 100 | 1017.3 |
| 20260831075523 | 78 | 155 | 0.0 | 0.0 | 0.00 | 0.81 | 0.00 | 100 | 1017.3 |
| 20260831075023 | 78 | 156 | 0.0 | 0.0 | 0.00 | 0.81 | 0.00 | 100 | 1017.3 |
| 20260831074524 | 78 | 157 | 0.0 | 0.0 | 0.00 | 0.81 | 0.00 | 100 | 1017.5 |
| 20260831074023 | 78 | 157 | 0.0 | 0.0 | 0.00 | 0.81 | 0.00 | 100 | 1017.4 |
| 20260831073531 | 78 | 157 | 0.0 | 0.0 | 0.00 | 0.81 | 0.00 | 100 | 1017.4 |
| 20260831073027 | 78 | 157 | 0.0 | 0.0 | 0.00 | 0.81 | 0.00 | 100 | 1017.4 |
| 20260831072523 | 78 | 157 | 0.0 | 0.0 | 0.00 | 0.81 | 0.00 | 100 | 1017.4 |
| 20260831072023 | 78 | 157 | 0.0 | 0.0 | 0.00 | 0.81 | 0.00 | 100 | 1017.5 |
| 20260831071521 | 78 | 157 | 0.0 | 0.0 | 0.00 | 0.81 | 0.00 | 100 | 1017.5 |
| 20260831071021 | 78 | 157 | 0.0 | 0.0 | 0.00 | 0.81 | 0.00 | 100 | 1017.6 |
| 20260831070523 | 78 | 157 | 0.0 | 0.0 | 0.00 | 0.81 | 0.00 | 100 | 1017.5 |
| 20260831070028 | 78 | 159 | 0.0 | 0.0 | 0.00 | 0.81 | 0.00 | 100 | 1017.7 |
| 20260831065521 | 78 | 159 | 0.0 | 0.0 | 0.00 | 0.81 | 0.00 | 100 | 1017.7 |
| 20260831065024 | 78 | 159 | 0.0 | 0.0 | 0.00 | 0.81 | 0.00 | 100 | 1017.5 |
| 20260831064521 | 78 | 163 | 0.0 | 0.0 | 0.00 | 0.81 | 0.00 | 100 | 1017.5 |
| 20260831064020 | 78 | 163 | 0.0 | 0.0 | 0.00 | 0.81 | 0.00 | 100 | 1017.4 |
| 20260831063520 | 78 | 163 | 0.0 | 0.0 | 0.00 | 0.81 | 0.00 | 100 | 1017.5 |
| 20260831063019 | 77 | 163 | 0.0 | 0.0 | 0.00 | 0.81 | 0.00 | 100 | 1017.5 |
| 20260831062520 | 77 | 163 | 0.0 | 0.0 | 0.00 | 0.81 | 0.00 | 100 | 1017.5 |
| 20260831062020 | 77 | 163 | 0.0 | 0.0 | 0.00 | 0.81 | 0.00 | 100 | 1017.5 |
| 20260831061518 | 77 | 163 | 0.0 | 0.0 | 0.00 | 0.81 | 0.00 | 100 | 1017.6 |
| 20260831061019 | 77 | 163 | 0.0 | 2.0 | 0.00 | 0.81 | 0.00 | 100 | 1017.7 |
| 20260831060517 | 77 | 163 | 0.0 | 2.0 | 0.00 | 0.81 | 0.00 | 100 | 1017.8 |
| 20260831060016 | 77 | 163 | 0.0 | 3.0 | 0.00 | 0.81 | 0.00 | 100 | 1017.9 |
| 20260831055516 | 77 | 163 | 0.0 | 5.0 | 0.00 | 0.81 | 0.00 | 100 | 1018.1 |
| 20260831055015 | 77 | 163 | 2.0 | 5.0 | 0.00 | 0.81 | 0.00 | 100 | 1018.1 |
| 20260831054515 | 78 | 182 | 2.0 | 6.0 | 0.00 | 0.81 | 0.00 | 100 | 1018.2 |
| 20260831054017 | 78 | 171 | 3.0 | 7.0 | 0.00 | 0.81 | 0.00 | 100 | 1018.3 |
| 20260831053513 | 79 | 172 | 3.0 | 13.0 | 0.00 | 0.81 | 0.00 | 100 | 1018.3 |
| 20260831053012 | 79 | 142 | 6.0 | 13.0 | 0.00 | 0.81 | 0.00 | 100 | 1018.3 |
| 20260831052511 | 79 | 169 | 1.0 | 5.0 | 0.00 | 0.81 | 0.00 | 100 | 1018.3 |
| 20260831052010 | 79 | 165 | 2.0 | 5.0 | 0.00 | 0.81 | 0.00 | 100 | 1018.4 |
| 20260831051522 | 78 | 109 | 1.0 | 4.0 | 0.00 | 0.81 | 0.00 | 100 | 1018.6 |
| 20260831051009 | 78 | 106 | 0.0 | 6.0 | 0.00 | 0.81 | 0.00 | 100 | 1018.6 |
| 20260831050509 | 78 | 104 | 2.0 | 6.0 | 0.00 | 0.81 | 0.00 | 100 | 1018.5 |
| 20260831050009 | 79 | 130 | 1.0 | 8.0 | 0.00 | 0.81 | 0.00 | 100 | 1018.6 |
| 20260831045509 | 79 | 130 | 2.0 | 8.0 | 0.00 | 0.81 | 0.00 | 100 | 1018.7 |
| 20260831045009 | 79 | 90 | 0.0 | 0.0 | 0.00 | 0.81 | 0.00 | 100 | 1018.7 |
| 20260831044508 | 79 | 13 | 0.0 | 0.0 | 0.00 | 0.81 | 0.00 | 100 | 1018.6 |
| 20260831044008 | 78 | 12 | 0.0 | 0.0 | 0.00 | 0.81 | 0.00 | 100 | 1018.6 |
| 20260831043507 | 78 | 12 | 0.0 | 0.0 | 0.00 | 0.81 | 0.00 | 100 | 1018.7 |
| 20260831043008 | 79 | 12 | 0.0 | 0.0 | 0.00 | 0.81 | 0.00 | 100 | 1018.6 |
| 20260831042507 | 78 | 12 | 0.0 | 0.0 | 0.00 | 0.81 | 0.00 | 100 | 1018.6 |
| 20260831042007 | 79 | 12 | 0.0 | 0.0 | 0.00 | 0.81 | 0.00 | 100 | 1018.5 |
| 20260831041509 | 79 | 12 | 0.0 | 0.0 | 0.00 | 0.81 | 0.00 | 100 | 1018.7 |
| 20260831041008 | 79 | 12 | 0.0 | 0.0 | 0.00 | 0.81 | 0.00 | 100 | 1018.8 |
| 20260831040505 | 79 | 11 | 0.0 | 0.0 | 0.00 | 0.81 | 0.00 | 100 | 1018.7 |
| 20260831040005 | 79 | 12 | 0.0 | 0.0 | 0.00 | 0.81 | 0.00 | 100 | 1018.7 |
| 20260831035506 | 79 | 12 | 0.0 | 0.0 | 0.00 | 0.81 | 0.00 | 100 | 1018.7 |
| 20260831035004 | 79 | 12 | 0.0 | 0.0 | 0.00 | 0.81 | 0.00 | 100 | 1018.9 |
| 20260831034505 | 79 | 12 | 0.0 | 0.0 | 0.00 | 0.81 | 0.81 | 100 | 1018.9 |
| 20260831034003 | 79 | 12 | 0.0 | 0.0 | 0.00 | 0.81 | 0.81 | 100 | 1018.9 |
| 20260831033503 | 79 | 12 | 0.0 | 0.0 | 0.00 | 0.81 | 0.81 | 100 | 1018.9 |
| 20260831033004 | 79 | 12 | 0.0 | 0.0 | 0.00 | 0.81 | 0.81 | 100 | 1018.9 |
| 20260831032503 | 79 | 12 | 0.0 | 0.0 | 0.00 | 0.81 | 0.81 | 100 | 1018.9 |
| 20260831032002 | 79 | 12 | 0.0 | 0.0 | 0.00 | 0.81 | 0.81 | 100 | 1018.9 |
| 20260831031502 | 79 | 12 | 0.0 | 0.0 | 0.00 | 0.81 | 0.81 | 100 | 1018.9 |
| 20260831031003 | 79 | 12 | 0.0 | 0.0 | 0.00 | 0.81 | 0.81 | 100 | 1018.8 |
| 20260831030505 | 79 | 12 | 0.0 | 0.0 | 0.00 | 0.81 | 0.81 | 100 | 1018.9 |
| 20260831030002 | 79 | 12 | 0.0 | 0.0 | 0.00 | 0.81 | 0.81 | 100 | 1018.8 |
| 20260831025502 | 79 | 12 | 0.0 | 0.0 | 0.00 | 0.81 | 0.81 | 100 | 1018.8 |
| 20260831025002 | 79 | 11 | 0.0 | 0.0 | 0.00 | 0.81 | 0.81 | 100 | 1018.7 |
| 20260831024502 | 79 | 11 | 0.0 | 2.0 | 0.00 | 0.81 | 0.81 | 100 | 1018.7 |
| 20260831024002 | 79 | 11 | 0.0 | 2.0 | 0.00 | 0.81 | 0.81 | 100 | 1018.7 |
| 20260831023502 | 79 | 12 | 0.0 | 3.0 | 0.00 | 0.81 | 0.81 | 100 | 1018.7 |
| 20260831023001 | 79 | 12 | 0.0 | 3.0 | 0.00 | 0.81 | 0.81 | 100 | 1018.7 |
| 20260831022504 | 79 | 11 | 1.0 | 3.0 | 0.00 | 0.81 | 0.81 | 100 | 1018.6 |
| 20260831022001 | 79 | 12 | 0.0 | 2.0 | 0.00 | 0.81 | 0.81 | 100 | 1018.6 |
| 20260831021603 | 79 | 12 | 0.0 | 2.0 | 0.00 | 0.81 | 0.81 | 100 | 1018.6 |
| 20260831021100 | 79 | 12 | 0.0 | 3.0 | 0.00 | 0.81 | 0.81 | 100 | 1018.7 |
| 20260831021004 | 79 | 12 | 0.0 | 3.0 | 0.00 | 0.81 | 0.81 | 100 | 1018.7 |
| 20260831020600 | 79 | 12 | 1.0 | 4.0 | 0.00 | 0.81 | 0.81 | 100 | 1018.7 |
| 20260831015600 | 79 | 5 | 0.0 | 4.0 | 0.00 | 0.81 | 0.81 | 100 | 1018.6 |
| 20260831015100 | 79 | 355 | 0.0 | 4.0 | 0.00 | 0.81 | 0.81 | 100 | 1018.6 |
| 20260831014610 | 79 | 355 | 0.0 | 4.0 | 0.00 | 0.81 | 0.81 | 100 | 1018.7 |
| 20260831014100 | 79 | 15 | 1.0 | 4.0 | 0.00 | 0.81 | 0.81 | 100 | 1018.7 |
| 20260831013600 | 79 | 17 | 1.0 | 4.0 | 0.00 | 0.81 | 0.81 | 100 | 1018.7 |
| 20260831013113 | 79 | 11 | 0.0 | 3.0 | 0.00 | 0.81 | 0.81 | 100 | 1018.8 |
| 20260831012600 | 79 | 14 | 0.0 | 0.0 | 0.00 | 0.81 | 0.81 | 100 | 1018.9 |
| 20260831012100 | 79 | 15 | 0.0 | 0.0 | 0.00 | 0.81 | 0.81 | 100 | 1018.8 |
| 20260831011604 | 80 | 28 | 0.0 | 0.0 | 0.00 | 0.81 | 0.81 | 100 | 1018.9 |
| 20260831011058 | 80 | 33 | 0.0 | 2.0 | 0.00 | 0.81 | 0.81 | 100 | 1018.8 |
| 20260831010559 | 80 | 38 | 0.0 | 2.0 | 0.00 | 0.81 | 0.81 | 100 | 1018.7 |
| 20260831010058 | 80 | 38 | 0.0 | 3.0 | 0.00 | 0.81 | 0.81 | 100 | 1018.7 |
| 20260831005558 | 80 | 38 | 1.0 | 3.0 | 0.00 | 0.81 | 0.81 | 100 | 1018.7 |
| 20260831005057 | 80 | 79 | 0.0 | 2.0 | 0.00 | 0.81 | 0.81 | 100 | 1018.8 |
| 20260831004558 | 80 | 80 | 0.0 | 2.0 | 0.00 | 0.81 | 0.81 | 100 | 1018.7 |
| 20260831004058 | 80 | 77 | 0.0 | 4.0 | 0.00 | 0.81 | 0.81 | 100 | 1018.7 |
| 20260831003558 | 80 | 55 | 0.0 | 4.0 | 0.00 | 0.81 | 0.81 | 100 | 1018.7 |
| 20260831003059 | 80 | 110 | 0.0 | 2.0 | 0.00 | 0.81 | 0.81 | 100 | 1018.5 |
| 20260831002559 | 80 | 111 | 0.0 | 3.0 | 0.00 | 0.81 | 0.81 | 100 | 1018.6 |
| 20260831002058 | 80 | 113 | 0.0 | 3.0 | 0.00 | 0.81 | 0.81 | 100 | 1018.6 |
| 20260831001557 | 80 | 119 | 0.0 | 3.0 | 0.00 | 0.81 | 0.81 | 100 | 1018.6 |
| 20260831001056 | 80 | 120 | 0.0 | 1.0 | 0.00 | 0.81 | 0.81 | 100 | 1018.6 |
| 20260831000556 | 80 | 40 | 0.0 | 4.0 | 0.00 | 0.81 | 0.81 | 100 | 1018.3 |
| 20260831000056 | 80 | 26 | 1.0 | 4.0 | 0.00 | 0.81 | 0.81 | 100 | 1018.4 |
| 20260830235555 | 80 | 101 | 0.0 | 4.0 | 0.00 | 0.81 | 0.81 | 100 | 1018.5 |
| 20260830235057 | 81 | 104 | 0.0 | 2.0 | 0.00 | 0.81 | 0.81 | 100 | 1018.5 |
| 20260830234604 | 81 | 104 | 0.0 | 4.0 | 0.00 | 0.81 | 0.81 | 100 | 1018.4 |
| 20260830234059 | 81 | 105 | 0.0 | 4.0 | 0.00 | 0.81 | 0.81 | 100 | 1018.3 |
| 20260830233556 | 81 | 107 | 1.0 | 4.0 | 0.00 | 0.81 | 0.81 | 100 | 1018.4 |
| 20260830233055 | 81 | 105 | 0.0 | 3.0 | 0.00 | 0.81 | 0.81 | 100 | 1018.3 |
| 20260830232555 | 81 | 96 | 0.0 | 3.0 | 0.00 | 0.81 | 0.81 | 100 | 1018.1 |
| 20260830232057 | 81 | 74 | 0.0 | 3.0 | 0.00 | 0.81 | 0.81 | 100 | 1018.0 |
| 20260830231555 | 81 | 103 | 0.0 | 2.0 | 0.00 | 0.81 | 0.81 | 100 | 1017.9 |
| 20260830231054 | 81 | 105 | 0.0 | 2.0 | 0.00 | 0.81 | 0.81 | 100 | 1017.8 |
| 20260830230554 | 81 | 105 | 0.0 | 3.0 | 0.00 | 0.81 | 0.81 | 100 | 1017.8 |
| 20260830230055 | 81 | 105 | 1.0 | 3.0 | 0.00 | 0.81 | 0.81 | 100 | 1017.6 |
| 20260830225554 | 81 | 97 | 1.0 | 3.0 | 0.00 | 0.81 | 0.81 | 100 | 1017.6 |
| 20260830225054 | 81 | 90 | 0.0 | 3.0 | 0.00 | 0.81 | 0.81 | 100 | 1017.8 |
| 20260830224556 | 81 | 91 | 0.0 | 3.0 | 0.00 | 0.82 | 0.81 | 100 | 1017.8 |
| 20260830224054 | 82 | 48 | 0.0 | 3.0 | 0.00 | 0.82 | 0.81 | 100 | 1017.9 |
| 20260830223556 | 82 | 81 | 0.0 | 3.0 | 0.00 | 0.82 | 0.81 | 100 | 1018.0 |
| 20260830223055 | 82 | 81 | 0.0 | 3.0 | 0.00 | 0.82 | 0.81 | 100 | 1018.0 |
| 20260830222556 | 82 | 81 | 1.0 | 3.0 | 0.00 | 0.82 | 0.81 | 100 | 1018.1 |
| 20260830222053 | 82 | 61 | 0.0 | 4.0 | 0.00 | 0.82 | 0.81 | 100 | 1018.1 |
| 20260830221553 | 82 | 93 | 0.0 | 4.0 | 0.00 | 0.82 | 0.81 | 100 | 1018.1 |
| 20260830221052 | 82 | 96 | 0.0 | 3.0 | 0.00 | 0.82 | 0.81 | 100 | 1018.2 |
| 20260830220552 | 82 | 96 | 1.0 | 3.0 | 0.00 | 0.82 | 0.81 | 100 | 1018.1 |
| 20260830220053 | 82 | 83 | 0.0 | 3.0 | 0.00 | 0.82 | 0.81 | 100 | 1018.1 |
| 20260830215553 | 82 | 54 | 1.0 | 5.0 | 0.00 | 0.82 | 0.81 | 100 | 1018.1 |
| 20260830215051 | 83 | 69 | 0.0 | 3.0 | 0.00 | 0.82 | 0.81 | 100 | 1018.1 |
| 20260830214551 | 83 | 85 | 0.0 | 3.0 | 0.00 | 0.83 | 0.81 | 100 | 1018.1 |
| 20260830214053 | 83 | 17 | 0.0 | 3.0 | 0.00 | 0.83 | 0.81 | 100 | 1018.0 |
| 20260830213553 | 83 | 99 | 1.0 | 4.0 | 0.00 | 0.83 | 0.81 | 100 | 1017.8 |
| 20260830213054 | 84 | 101 | 1.0 | 4.0 | 0.00 | 0.83 | 0.81 | 100 | 1017.7 |
| 20260830212551 | 84 | 26 | 1.0 | 7.0 | 0.00 | 0.83 | 0.81 | 100 | 1017.8 |
| 20260830212051 | 84 | 98 | 2.0 | 7.0 | 0.00 | 0.83 | 0.81 | 100 | 1017.9 |
| 20260830211552 | 85 | 117 | 1.0 | 7.0 | 0.00 | 0.83 | 0.81 | 100 | 1017.9 |
| 20260830211050 | 84 | 113 | 3.0 | 7.0 | 0.00 | 0.83 | 0.81 | 100 | 1017.9 |
| 20260830210551 | 85 | 131 | 2.0 | 7.0 | 0.00 | 0.83 | 0.81 | 100 | 1018.0 |
| 20260830210053 | 85 | 117 | 2.0 | 7.0 | 0.00 | 0.83 | 0.81 | 100 | 1017.9 |
| 20260830205550 | 85 | 105 | 3.0 | 7.0 | 0.00 | 0.83 | 0.81 | 100 | 1017.9 |
| 20260830205051 | 85 | 141 | 3.0 | 7.0 | 0.00 | 0.83 | 0.81 | 100 | 1017.9 |
| 20260830204550 | 85 | 131 | 2.0 | 8.0 | 0.00 | 0.93 | 0.81 | 100 | 1017.9 |
| 20260830204053 | 85 | 130 | 1.0 | 8.0 | 0.00 | 0.93 | 0.81 | 100 | 1017.8 |
| 20260830203550 | 85 | 116 | 0.0 | 4.0 | 0.00 | 0.93 | 0.81 | 100 | 1017.9 |
| 20260830203109 | 85 | 105 | 0.0 | 3.0 | 0.00 | 0.93 | 0.81 | 100 | 1017.8 |
| 20260830202551 | 84 | 139 | 0.0 | 4.0 | 0.00 | 0.93 | 0.81 | 100 | 1018.1 |
| 20260830202049 | 84 | 139 | 1.0 | 7.0 | 0.00 | 0.93 | 0.81 | 100 | 1018.1 |
| 20260830201550 | 84 | 140 | 3.0 | 7.0 | 0.00 | 0.93 | 0.81 | 100 | 1018.1 |
| 20260830201048 | 84 | 141 | 2.0 | 8.0 | 0.00 | 0.93 | 0.81 | 100 | 1018.2 |
| 20260830200651 | 83 | 153 | 3.0 | 8.0 | 0.00 | 0.93 | 0.81 | 100 | 1018.2 |
| 20260830200049 | 84 | 173 | 2.0 | 5.0 | 0.00 | 0.93 | 0.81 | 100 | 1018.3 |
| 20260830195549 | 84 | 167 | 3.0 | 8.0 | 0.00 | 0.93 | 0.81 | 100 | 1018.3 |
| 20260830195048 | 84 | 149 | 3.0 | 8.0 | 0.00 | 0.93 | 0.81 | 100 | 1018.3 |
| 20260830194550 | 84 | 154 | 2.0 | 8.0 | 0.00 | 0.97 | 0.81 | 100 | 1018.3 |
| 20260830194048 | 84 | 148 | 3.0 | 7.0 | 0.00 | 0.97 | 0.81 | 100 | 1018.2 |
| 20260830193546 | 84 | 173 | 0.0 | 5.0 | 0.00 | 0.97 | 0.81 | 100 | 1018.3 |
| 20260830193047 | 84 | 190 | 1.0 | 4.0 | 0.00 | 0.97 | 0.81 | 100 | 1018.4 |
| 20260830192547 | 84 | 172 | 1.0 | 7.0 | 0.00 | 0.97 | 0.81 | 100 | 1018.5 |
| 20260830192046 | 83 | 167 | 2.0 | 7.0 | 0.00 | 0.97 | 0.81 | 100 | 1018.5 |
| 20260830191554 | 83 | 148 | 1.0 | 5.0 | 0.00 | 0.97 | 0.81 | 100 | 1018.5 |
| 20260830191046 | 82 | 138 | 0.0 | 3.0 | 0.00 | 0.97 | 0.81 | 100 | 1018.5 |
| 20260830190545 | 82 | 137 | 1.0 | 3.0 | 0.00 | 0.97 | 0.81 | 100 | 1018.4 |
| 20260830190046 | 83 | 134 | 0.0 | 1.0 | 0.00 | 0.97 | 0.81 | 100 | 1018.4 |
| 20260830185545 | 82 | 135 | 0.0 | 1.0 | 0.00 | 0.97 | 0.81 | 100 | 1018.4 |
| 20260830185046 | 82 | 135 | 0.0 | 2.0 | 0.00 | 0.97 | 0.81 | 100 | 1018.4 |
| 20260830184545 | 82 | 135 | 0.0 | 4.0 | 0.00 | 0.97 | 0.81 | 100 | 1018.6 |
| 20260830184045 | 82 | 58 | 0.0 | 5.0 | 0.00 | 0.97 | 0.81 | 100 | 1018.8 |
| 20260830183544 | 83 | 360 | 0.0 | 5.0 | 0.00 | 0.97 | 0.81 | 100 | 1018.8 |
| 20260830183048 | 83 | 98 | 0.0 | 5.0 | 0.00 | 0.97 | 0.81 | 100 | 1018.9 |
| 20260830182544 | 83 | 27 | 0.0 | 8.0 | 0.00 | 0.97 | 0.81 | 100 | 1019.0 |
| 20260830182044 | 83 | 355 | 3.0 | 8.0 | 0.00 | 0.97 | 0.81 | 100 | 1018.9 |
| 20260830181555 | 83 | 5 | 3.0 | 7.0 | 0.00 | 0.97 | 0.81 | 100 | 1019.1 |
| 20260830181044 | 83 | 83 | 0.0 | 8.0 | 0.00 | 0.97 | 0.81 | 100 | 1019.0 |
| 20260830180543 | 83 | 5 | 3.0 | 9.0 | 0.00 | 0.97 | 0.81 | 100 | 1019.1 |
| 20260830180045 | 82 | 15 | 3.0 | 9.0 | 0.00 | 0.97 | 0.81 | 100 | 1019.3 |
| 20260830175543 | 81 | 104 | 1.0 | 11.0 | 0.00 | 0.97 | 0.81 | 100 | 1019.4 |
| 20260830175043 | 81 | 342 | 4.0 | 11.0 | 0.00 | 0.97 | 0.81 | 100 | 1019.5 |
| 20260830174543 | 80 | 34 | 2.0 | 6.0 | 0.00 | 0.97 | 0.81 | 100 | 1019.8 |
| 20260830174045 | 81 | 102 | 2.0 | 6.0 | 0.00 | 0.97 | 0.81 | 100 | 1019.8 |
| 20260830173543 | 80 | 65 | 3.0 | 6.0 | 0.00 | 0.97 | 0.81 | 100 | 1019.8 |
| 20260830173101 | 80 | 99 | 1.0 | 8.0 | 0.00 | 0.97 | 0.81 | 100 | 1019.9 |
| 20260830172542 | 80 | 19 | 2.0 | 6.0 | 0.00 | 0.97 | 0.81 | 100 | 1019.9 |
| 20260830172042 | 79 | 52 | 1.0 | 9.0 | 0.00 | 0.97 | 0.81 | 100 | 1019.9 |
| 20260830171544 | 79 | 355 | 5.0 | 10.0 | 0.00 | 0.97 | 0.81 | 100 | 1020.0 |
| 20260830171041 | 79 | 344 | 3.0 | 8.0 | 0.00 | 0.97 | 0.81 | 100 | 1019.8 |
| 20260830170544 | 80 | 347 | 2.0 | 8.0 | 0.00 | 0.97 | 0.81 | 100 | 1019.7 |
| 20260830170041 | 80 | 312 | 3.0 | 9.0 | 0.00 | 0.97 | 0.81 | 100 | 1019.7 |
| 20260830165541 | 79 | 318 | 3.0 | 9.0 | 0.00 | 0.97 | 0.81 | 100 | 1019.7 |
| 20260830165040 | 78 | 333 | 2.0 | 10.0 | 0.00 | 0.97 | 0.81 | 100 | 1020.1 |
| 20260830164603 | 78 | 355 | 2.0 | 8.0 | 0.01 | 0.97 | 0.81 | 100 | 1020.6 |
| 20260830164040 | 78 | 36 | 1.0 | 6.0 | 0.01 | 0.97 | 0.81 | 100 | 1020.3 |
| 20260830163539 | 76 | 360 | 3.0 | 9.0 | 0.03 | 0.97 | 0.81 | 100 | 1020.4 |
| 20260830163051 | 76 | 111 | 2.0 | 7.0 | 0.05 | 0.97 | 0.81 | 100 | 1020.7 |
| 20260830162539 | 76 | 355 | 2.0 | 5.0 | 0.06 | 0.97 | 0.81 | 100 | 1020.5 |
| 20260830162041 | 76 | 340 | 2.0 | 8.0 | 0.23 | 0.97 | 0.81 | 100 | 1020.5 |
| 20260830161542 | 76 | 360 | 2.0 | 8.0 | 0.54 | 0.97 | 0.81 | 100 | 1020.5 |
| 20260830161038 | 76 | 336 | 2.0 | 4.0 | 0.75 | 0.97 | 0.81 | 100 | 1020.6 |
| 20260830160537 | 76 | 11 | 1.0 | 4.0 | 0.75 | 0.97 | 0.81 | 100 | 1020.6 |
| 20260830160038 | 76 | 123 | 0.0 | 2.0 | 0.75 | 0.97 | 0.81 | 100 | 1020.8 |
| 20260830155539 | 76 | 124 | 0.0 | 6.0 | 0.75 | 0.97 | 0.81 | 100 | 1020.8 |
| 20260830155038 | 76 | 112 | 1.0 | 6.0 | 0.75 | 0.97 | 0.81 | 100 | 1020.7 |
| 20260830154537 | 76 | 127 | 0.0 | 2.0 | 0.74 | 0.96 | 0.80 | 100 | 1020.5 |
| 20260830154038 | 76 | 128 | 0.0 | 4.0 | 0.77 | 0.96 | 0.80 | 100 | 1020.6 |
| 20260830153538 | 76 | 128 | 2.0 | 9.0 | 0.77 | 0.94 | 0.78 | 100 | 1020.7 |
| 20260830153036 | 76 | 159 | 0.0 | 9.0 | 0.75 | 0.92 | 0.76 | 100 | 1020.5 |
| 20260830152537 | 76 | 206 | 1.0 | 8.0 | 0.73 | 0.90 | 0.74 | 100 | 1020.5 |
| 20260830152037 | 76 | 235 | 3.0 | 30.0 | 0.53 | 0.70 | 0.54 | 100 | 1020.9 |
| 20260830151541 | 77 | 209 | 15.0 | 30.0 | 0.20 | 0.37 | 0.21 | 100 | 1021.1 |
| 20260830151034 | 80 | 183 | 9.0 | 20.0 | 0.05 | 0.22 | 0.06 | 100 | 1020.1 |
| 20260830150534 | 81 | 133 | 5.0 | 10.0 | 0.05 | 0.22 | 0.06 | 100 | 1019.8 |
| 20260830150039 | 81 | 202 | 2.0 | 8.0 | 0.05 | 0.22 | 0.06 | 100 | 1019.8 |
| 20260830145532 | 82 | 217 | 0.0 | 5.0 | 0.05 | 0.22 | 0.06 | 100 | 1019.7 |
| 20260830145031 | 82 | 310 | 3.0 | 15.0 | 0.05 | 0.22 | 0.06 | 100 | 1019.5 |
| 20260830144532 | 82 | 238 | 2.0 | 15.0 | 0.05 | 0.22 | 0.06 | 100 | 1019.6 |
| 20260830144031 | 82 | 259 | 5.0 | 10.0 | 0.01 | 0.18 | 0.02 | 100 | 1019.6 |
| 20260830143534 | 84 | 238 | 4.0 | 8.0 | 0.00 | 0.17 | 0.01 | 100 | 1019.6 |
| 20260830143032 | 85 | 211 | 1.0 | 5.0 | 0.00 | 0.17 | 0.01 | 100 | 1019.6 |
| 20260830142531 | 85 | 184 | 3.0 | 5.0 | 0.00 | 0.17 | 0.01 | 100 | 1019.6 |
| 20260830142033 | 86 | 159 | 1.0 | 6.0 | 0.00 | 0.17 | 0.01 | 100 | 1019.7 |
| 20260830141528 | 85 | 167 | 2.0 | 7.0 | 0.00 | 0.17 | 0.01 | 100 | 1019.7 |
| 20260830141028 | 84 | 218 | 3.0 | 7.0 | 0.00 | 0.17 | 0.01 | 100 | 1019.6 |
| 20260830140530 | 84 | 165 | 2.0 | 6.0 | 0.01 | 0.17 | 0.01 | 100 | 1019.7 |
| 20260830140028 | 85 | 215 | 1.0 | 7.0 | 0.01 | 0.17 | 0.01 | 100 | 1019.6 |
| 20260830135528 | 85 | 229 | 3.0 | 7.0 | 0.01 | 0.17 | 0.01 | 100 | 1019.7 |
| 20260830135028 | 85 | 178 | 2.0 | 5.0 | 0.01 | 0.17 | 0.01 | 100 | 1019.7 |